Thunderstorms From: 21-05-2018 15:00 Until: 22-05-2018 15:00 warning for: Thunderstorms Level: Yellow info button

Although rather usual in this region, locally or potentially dangerous phenomena are expected. (such as local winds, summer thunderstorms, rising streams or high waves) Be aware and pay attention to the latest weather updates, especially if you carry out activities exposed to weather or close to a stream or shoreline. 


Meteo18 Weather Cam more information Meteo18 Weather Cam


warning for Thunderstorms more information blitzortung!


Rain radar more information rain snow radar


Visit our other weather sites:

Template documentation
and downloads

And another site



Weather Underground History page Text

Daily Summary for June 28, 2017 Units:  Metric    English   Both
« Previous Day
Next Day »
Daily Weekly Monthly Yearly Custom
  High: Low: Average:
Temperature: -17.8 °C -9.2 °C -7.6 °C
Dew Point: -17.8 °C -10.9 °C -9.8 °C
Humidity: Humidity % 54 % 78 %
Wind Speed: 0 km/h 2.6 km/h 16.4 km/h
Wind Gust: 0 km/h - -
Wind:- - SW
Pressure: 0 hPa 33822.8 hPa -
Precipitation: 33.02 mm    
Historical Graphs
 
 
Tabular Data for June 28, 2017
Time Temperature Dew Point Pressure Wind Wind Speed Wind Gust Humidity Rainfall Rate (Hourly)
-17.8 °C -17.8 °C 0 hPa Calm     Humidity % 0 mm
00:02 -7.6 °C -9.3 °C 34015.8 hPa SW 28.5 km/h 31.1 km/h 82 % 0 mm
00:12 -7.7 °C -9.5 °C 34029.3 hPa SW 23.3 km/h 31.1 km/h 81 % 0 mm
00:17 -7.7 °C -9.9 °C 34015.8 hPa WSW 12.9 km/h 31.1 km/h 77 % 0 mm
00:22 -7.7 °C -10.1 °C 34015.8 hPa WSW 18.2 km/h 31.1 km/h 76 % 0 mm
00:32 -7.7 °C -10.1 °C 34005.6 hPa SW 18.2 km/h 41.4 km/h 76 % 0 mm
00:37 -7.7 °C -10.1 °C 34005.6 hPa SW 23.3 km/h 36.2 km/h 76 % 0 mm
00:42 -7.7 °C -10.1 °C 34005.6 hPa SSW 28.5 km/h 36.2 km/h 76 % 0 mm
00:47 -7.7 °C -10 °C 34005.6 hPa West 10.3 km/h 36.2 km/h 77 % 0 mm
00:52 -7.8 °C -10.1 °C 34005.6 hPa SW 7.7 km/h 36.2 km/h 77 % 0 mm
00:57 -7.8 °C -10 °C 33992.1 hPa SW 10.3 km/h 31.1 km/h 78 % 0 mm
01:02 -7.9 °C -9.9 °C 33992.1 hPa WSW 5.1 km/h 31.1 km/h 79 % 0 mm
01:12 -7.9 °C -9.9 °C 33992.1 hPa WSW 12.9 km/h 25.9 km/h 80 % 0 mm
01:17 -7.9 °C -9.9 °C 33992.1 hPa SSW 7.7 km/h 18.2 km/h 80 % 0 mm
01:22 -7.9 °C -9.9 °C 33992.1 hPa WSW 7.7 km/h 20.8 km/h 80 % 0 mm
01:32 -7.9 °C -9.9 °C 33992.1 hPa SW 15.6 km/h 33.6 km/h 80 % 0 mm
01:37 -8 °C -9.9 °C 33992.1 hPa West 23.3 km/h 38.8 km/h 80 % 0 mm
01:42 -8 °C -9.8 °C 33981.9 hPa WSW 20.8 km/h 38.8 km/h 81 % 0 mm
01:47 -8 °C -9.8 °C 33981.9 hPa SW 12.9 km/h 38.8 km/h 81 % 0 mm
01:52 -8 °C -9.7 °C 33981.9 hPa SW 7.7 km/h 36.2 km/h 82 % 0 mm
01:57 -8.1 °C -9.8 °C 33981.9 hPa SW 7.7 km/h 36.2 km/h 82 % 0 mm
02:02 -8.1 °C -9.8 °C 33981.9 hPa WSW 10.3 km/h 36.2 km/h 82 % 0 mm
02:12 -8.1 °C -9.7 °C 33981.9 hPa WSW 10.3 km/h 33.6 km/h 83 % 0 mm
02:17 -8.2 °C -9.8 °C 33992.1 hPa WSW 10.3 km/h 31.1 km/h 83 % 0 mm
02:22 -8.2 °C -9.7 °C 33981.9 hPa West 7.7 km/h 31.1 km/h 84 % 0 mm
02:27 -8.2 °C -9.7 °C 33981.9 hPa SW 23.3 km/h 33.6 km/h 84 % 0 mm
02:32 -8.2 °C -9.7 °C 33981.9 hPa SW 7.7 km/h 33.6 km/h 84 % 0 mm
02:37 -8.2 °C -9.7 °C 33981.9 hPa SW 12.9 km/h 33.6 km/h 84 % 0 mm
02:42 -8.2 °C -9.7 °C 33981.9 hPa SW 23.3 km/h 33.6 km/h 84 % 0 mm
02:52 -8.2 °C -9.6 °C 33971.7 hPa SW 25.9 km/h 33.6 km/h 85 % 0 mm
02:57 -8.2 °C -9.6 °C 33971.7 hPa SSE 12.9 km/h 41.4 km/h 85 % 0 mm
03:02 -8.2 °C -9.6 °C 33971.7 hPa SW 28.5 km/h 41.4 km/h 85 % 0 mm
03:12 -8.3 °C -9.7 °C 33971.7 hPa SW 5.1 km/h 33.6 km/h 85 % 0 mm
03:17 -8.3 °C -9.6 °C 33981.9 hPa WSW 15.6 km/h 36.2 km/h 86 % 0 mm
03:22 -8.3 °C -9.6 °C 33971.7 hPa SW 23.3 km/h 36.2 km/h 86 % 0 mm
03:32 -8.3 °C -9.7 °C 33971.7 hPa SSW 15.6 km/h 33.6 km/h 86 % 0 mm
03:37 -8.4 °C -9.7 °C 33971.7 hPa WSW 10.3 km/h 33.6 km/h 86 % 0 mm
03:42 -8.4 °C -9.7 °C 33958.2 hPa SW 15.6 km/h 28.5 km/h 86 % 0 mm
03:47 -8.4 °C -9.6 °C 33958.2 hPa WSW 12.9 km/h 28.5 km/h 87 % 0 mm
03:52 -8.4 °C -9.6 °C 33971.7 hPa SW 12.9 km/h 28.5 km/h 87 % 0 mm
03:57 -8.4 °C -9.7 °C 33971.7 hPa SW 10.3 km/h 28.5 km/h 87 % 0 mm
04:02 -8.4 °C -9.7 °C 33971.7 hPa WSW 20.8 km/h 28.5 km/h 87 % 0 mm
04:12 -8.5 °C -9.6 °C 33971.7 hPa WSW 20.8 km/h 28.5 km/h 88 % 0 mm
04:17 -8.6 °C -9.7 °C 33971.7 hPa WSW 23.3 km/h 31.1 km/h 88 % 0 mm
04:22 -8.6 °C -9.7 °C 33971.7 hPa SSE 12.9 km/h 31.1 km/h 88 % 0 mm
04:27 -8.6 °C -9.7 °C 33971.7 hPa SW 23.3 km/h 31.1 km/h 88 % 0 mm
04:32 -8.7 °C -9.8 °C 33958.2 hPa SW 12.9 km/h 28.5 km/h 88 % 0 mm
04:37 -8.7 °C -9.7 °C 33958.2 hPa WSW 15.6 km/h 36.2 km/h 89 % 0 mm
04:42 -8.8 °C -9.8 °C 33958.2 hPa South 12.9 km/h 36.2 km/h 89 % 0 mm
04:47 -8.8 °C -9.8 °C 33958.2 hPa SSW 18.2 km/h 36.2 km/h 89 % 0 mm
04:52 -8.8 °C -9.8 °C 33958.2 hPa SW 15.6 km/h 36.2 km/h 89 % 0 mm
04:57 -8.8 °C -9.8 °C 33958.2 hPa West 12.9 km/h 36.2 km/h 89 % 0 mm
05:02 -8.8 °C -9.8 °C 33971.7 hPa SW 23.3 km/h 31.1 km/h 89 % 0 mm
05:12 -8.8 °C -9.7 °C 33971.7 hPa SSW 23.3 km/h 31.1 km/h 90 % 0 mm
05:17 -8.9 °C -9.8 °C 33971.7 hPa SW 12.9 km/h 31.1 km/h 90 % 0 mm
05:22 -8.9 °C -9.8 °C 33971.7 hPa SW 20.8 km/h 33.6 km/h 90 % 0 mm
05:32 -8.9 °C -9.8 °C 33971.7 hPa SW 20.8 km/h 36.2 km/h 90 % 0 mm
05:42 -8.9 °C -9.8 °C 33971.7 hPa SW 7.7 km/h 36.2 km/h 90 % 0 mm
05:47 -8.9 °C -9.8 °C 33971.7 hPa WSW 7.7 km/h 36.2 km/h 90 % 0 mm
05:52 -8.9 °C -9.8 °C 33971.7 hPa SW 12.9 km/h 36.2 km/h 90 % 0 mm
05:57 -8.9 °C -9.8 °C 33971.7 hPa WSW 20.8 km/h 36.2 km/h 90 % 0 mm
06:02 -8.9 °C -9.8 °C 33971.7 hPa SSW 15.6 km/h 31.1 km/h 90 % 0 mm
06:12 -8.8 °C -9.7 °C 33971.7 hPa SW 25.9 km/h 31.1 km/h 90 % 0 mm
06:17 -8.8 °C -9.7 °C 33971.7 hPa SSW 23.3 km/h 31.1 km/h 90 % 0 mm
06:22 -8.8 °C -9.7 °C 33971.7 hPa SW 15.6 km/h 33.6 km/h 90 % 0 mm
06:32 -8.8 °C -9.7 °C 33971.7 hPa SW 20.8 km/h 33.6 km/h 90 % 0 mm
06:37 -8.8 °C -9.7 °C 33958.2 hPa SSW 20.8 km/h 33.6 km/h 90 % 0 mm
06:42 -8.8 °C -9.8 °C 33958.2 hPa SW 23.3 km/h 33.6 km/h 89 % 0 mm
06:47 -8.8 °C -9.8 °C 33958.2 hPa SSW 10.3 km/h 33.6 km/h 89 % 0 mm
06:52 -8.8 °C -9.8 °C 33958.2 hPa SSW 20.8 km/h 36.2 km/h 89 % 0 mm
07:02 -8.8 °C -9.7 °C 33958.2 hPa SW 15.6 km/h 36.2 km/h 90 % 0 mm
07:07 -8.8 °C -9.7 °C 33958.2 hPa SSW 12.9 km/h 36.2 km/h 90 % 0 mm
07:12 -8.9 °C -9.7 °C 33958.2 hPa SW 10.3 km/h 38.8 km/h 91 % 0 mm
07:17 -8.9 °C -9.7 °C 33958.2 hPa SSW 12.9 km/h 38.8 km/h 92 % 0 mm
07:22 -9 °C -9.7 °C 33958.2 hPa SW 7.7 km/h 28.5 km/h 92 % 0 mm
07:32 -9 °C -9.7 °C 33958.2 hPa SW 20.8 km/h 28.5 km/h 92 % 0 mm
07:42 -9 °C -9.6 °C 33958.2 hPa SSW 18.2 km/h 23.3 km/h 93 % 0 mm
07:47 -8.9 °C -9.7 °C 33958.2 hPa WSW 15.6 km/h 23.3 km/h 92 % 0 mm
07:52 -8.9 °C -9.7 °C 33958.2 hPa WSW 12.9 km/h 28.5 km/h 92 % 0 mm
07:57 -8.9 °C -9.6 °C 33958.2 hPa SSW 12.9 km/h 28.5 km/h 92 % 0 mm
08:02 -8.8 °C -9.6 °C 33958.2 hPa SW 23.3 km/h 23.3 km/h 92 % 0 mm
08:12 -8.8 °C -9.6 °C 33958.2 hPa SSW 20.8 km/h 23.3 km/h 91 % 0 mm
08:17 -8.7 °C -9.5 °C 33958.2 hPa SSW 10.3 km/h 23.3 km/h 91 % 0 mm
08:22 -8.6 °C -9.4 °C 33948 hPa SSE 15.6 km/h 31.1 km/h 90 % 0 mm
08:27 -8.5 °C -9.5 °C 33948 hPa SW 18.2 km/h 31.1 km/h 89 % 0 mm
08:32 -8.4 °C -9.4 °C 33948 hPa WSW 18.2 km/h 31.1 km/h 89 % 0 mm
08:42 -8.3 °C -9.4 °C 33948 hPa SW 12.9 km/h 31.1 km/h 88 % 0 mm
08:52 -8.2 °C -9.4 °C 33948 hPa SW 18.2 km/h 31.1 km/h 87 % 0 mm
08:57 -8.2 °C -9.6 °C 33948 hPa SW 20.8 km/h 31.1 km/h 86 % 0 mm
09:02 -8.2 °C -9.6 °C 33948 hPa South 18.2 km/h 33.6 km/h 86 % 0 mm
09:12 -8.2 °C -9.6 °C 33948 hPa WSW 23.3 km/h 33.6 km/h 85 % 0 mm
09:17 -8 °C -9.5 °C 33948 hPa SSW 18.2 km/h 33.6 km/h 84 % 0 mm
09:22 -7.8 °C -9.4 °C 33948 hPa SW 12.9 km/h 38.8 km/h 83 % 0 mm
09:27 -7.8 °C -9.6 °C 33948 hPa WSW 20.8 km/h 38.8 km/h 82 % 0 mm
09:32 -7.7 °C -9.4 °C 33948 hPa South 23.3 km/h 38.8 km/h 82 % 0 mm
09:37 -7.6 °C -9.2 °C 33948 hPa WSW 7.7 km/h 38.8 km/h 83 % 0 mm
09:42 -7.4 °C -9.4 °C 33937.9 hPa WSW 23.3 km/h 38.8 km/h 80 % 0 mm
09:47 -7.4 °C -9.3 °C 33948 hPa WSW 5.1 km/h 38.8 km/h 81 % 0 mm
09:57 -7.4 °C -9.6 °C 33937.9 hPa SW 25.9 km/h 33.6 km/h 78 % 0 mm
10:02 -7.3 °C -9.5 °C 33937.9 hPa WSW 23.3 km/h 33.6 km/h 78 % 0 mm
10:12 -7.4 °C -9.7 °C 33937.9 hPa WSW 23.3 km/h 36.2 km/h 77 % 0 mm
10:17 -7.4 °C -9.6 °C 33937.9 hPa WSW 5.1 km/h 36.2 km/h 78 % 0 mm
10:22 -7.4 °C -9.4 °C 33937.9 hPa SW 2.6 km/h 33.6 km/h 79 % 0 mm
10:32 -7.1 °C -9.4 °C 33924.3 hPa SW 12.9 km/h 33.6 km/h 77 % 0 mm
10:37 -7.1 °C -9.6 °C 33937.9 hPa SSW 15.6 km/h 33.6 km/h 75 % 0 mm
10:42 -7.2 °C -9.7 °C 33937.9 hPa SW 20.8 km/h 33.6 km/h 75 % 0 mm
10:47 -7.3 °C -9.4 °C 33937.9 hPa South 18.2 km/h 33.6 km/h 78 % 0 mm
10:52 -7.2 °C -9.3 °C 33924.3 hPa SSE 20.8 km/h 36.2 km/h 79 % 0 mm
11:02 -7.2 °C -9.4 °C 33924.3 hPa SSE 7.7 km/h 28.5 km/h 77 % 0 mm
11:12 -7.2 °C -9.4 °C 33924.3 hPa SW 15.6 km/h 28.5 km/h 77 % 0 mm
11:17 -7.1 °C -9.4 °C 33914.2 hPa SSW 18.2 km/h 28.5 km/h 76 % 0 mm
11:22 -6.9 °C -9.4 °C 33914.2 hPa South 15.6 km/h 28.5 km/h 75 % 0 mm
11:27 -6.9 °C -9.4 °C 33914.2 hPa SW 12.9 km/h 28.5 km/h 75 % 0 mm
11:32 -6.8 °C -9.3 °C 33914.2 hPa SSW 12.9 km/h 28.5 km/h 75 % 0 mm
11:42 -6.9 °C -9.7 °C 33914.2 hPa SW 18.2 km/h 31.1 km/h 73 % 0 mm
11:52 -7.1 °C -9.6 °C 33914.2 hPa SSW 20.8 km/h 36.2 km/h 75 % 0 mm
11:57 -7.1 °C -9.3 °C 33914.2 hPa South 7.7 km/h 36.2 km/h 78 % 0 mm
12:02 -7.3 °C -9.2 °C 33914.2 hPa SW 10.3 km/h 36.2 km/h 81 % 0 mm
12:12 -7.4 °C -8.9 °C 33914.2 hPa South 12.9 km/h 28.5 km/h 84 % 0 mm
12:17 -7.4 °C -9.1 °C 33900.6 hPa SSW 25.9 km/h 28.5 km/h 82 % 0 mm
12:22 -7.3 °C -8.9 °C 33900.6 hPa WSW 20.8 km/h 31.1 km/h 83 % 0 mm
12:32 -7.1 °C -8.9 °C 33900.6 hPa SW 28.5 km/h 31.1 km/h 81 % 0 mm
12:37 -7.2 °C -8.8 °C 33900.6 hPa SSW 23.3 km/h 41.4 km/h 83 % 0 mm
12:42 -7.3 °C -9 °C 33900.6 hPa SSW 23.3 km/h 41.4 km/h 82 % 0 mm
12:47 -7.3 °C -9 °C 33900.6 hPa SW 31.1 km/h 41.4 km/h 82 % 0 mm
12:57 -7.1 °C -9 °C 33900.6 hPa SW 20.8 km/h 44.1 km/h 80 % 0 mm
13:02 -7.1 °C -9.1 °C 33900.6 hPa South 23.3 km/h 44.1 km/h 79 % 0 mm
13:07 -7 °C -9.4 °C 33900.6 hPa SW 10.3 km/h 44.1 km/h 76 % 0 mm
13:12 -7 °C -9.4 °C 33900.6 hPa SSW 31.1 km/h 46.7 km/h 76 % 0 mm
13:22 -7.6 °C -9.4 °C 33900.6 hPa WSW 31.1 km/h 51.8 km/h 81 % 0 mm
13:27 -7.9 °C -9.2 °C 33900.6 hPa SW 12.9 km/h 51.8 km/h 86 % 0 mm
13:32 -8.1 °C -9.2 °C 33900.6 hPa South 10.3 km/h 46.7 km/h 88 % 12.7 mm
13:42 -8.2 °C -9.1 °C 33900.6 hPa SW 10.3 km/h 33.6 km/h 90 % 12.7 mm
13:52 -8 °C -8.9 °C 33900.6 hPa SW 12.9 km/h 31.1 km/h 90 % 12.7 mm
13:57 -7.9 °C -8.9 °C 33890.5 hPa SW 20.8 km/h 31.1 km/h 89 % 12.7 mm
14:02 -7.7 °C -8.7 °C 33890.5 hPa WSW 18.2 km/h 38.8 km/h 89 % 12.7 mm
14:12 -7.6 °C -8.9 °C 33890.5 hPa WSW 7.7 km/h 38.8 km/h 86 % 12.7 mm
14:17 -7.6 °C -8.9 °C 33890.5 hPa WSW 18.2 km/h 38.8 km/h 86 % 12.7 mm
14:22 -7.7 °C -8.8 °C 33890.5 hPa WNW 5.1 km/h 36.2 km/h 88 % 20.32 mm
14:32 -7.9 °C -9 °C 33890.5 hPa WSW 12.9 km/h 33.6 km/h 88 % 12.7 mm
14:42 -7.6 °C -9.2 °C 33890.5 hPa West 10.3 km/h 25.9 km/h 84 % 12.7 mm
14:52 -7.2 °C -9.2 °C 33880.3 hPa West 18.2 km/h 36.2 km/h 79 % 12.7 mm
14:57 -7 °C -9.1 °C 33880.3 hPa West 15.6 km/h 36.2 km/h 79 % 12.7 mm
15:02 -6.8 °C -8.9 °C 33880.3 hPa West 10.3 km/h 36.2 km/h 78 % 12.7 mm
15:12 -6.8 °C -9.5 °C 33880.3 hPa West 12.9 km/h 33.6 km/h 74 % 12.7 mm
15:17 -6.9 °C -9.4 °C 33880.3 hPa WSW 15.6 km/h 31.1 km/h 75 % 12.7 mm
15:22 -6.9 °C -9.3 °C 33880.3 hPa West 18.2 km/h 41.4 km/h 76 % 12.7 mm
15:27 -6.9 °C -9.2 °C 33880.3 hPa West 10.3 km/h 41.4 km/h 77 % 0 mm
15:32 -6.8 °C -9 °C 33880.3 hPa WNW 7.7 km/h 38.8 km/h 78 % 0 mm
15:37 -6.7 °C -9.2 °C 33880.3 hPa West 12.9 km/h 31.1 km/h 76 % 0 mm
15:42 -6.7 °C -9.1 °C 33880.3 hPa WSW 15.6 km/h 31.1 km/h 76 % 0 mm
15:47 -6.6 °C -9.2 °C 33866.8 hPa WSW 12.9 km/h 28.5 km/h 75 % 0 mm
15:52 -6.7 °C -9.4 °C 33880.3 hPa SW 7.7 km/h 23.3 km/h 73 % 0 mm
15:57 -6.8 °C -8.9 °C 33880.3 hPa SSW 10.3 km/h 31.1 km/h 78 % 7.62 mm
16:02 -6.9 °C -8.7 °C 33866.8 hPa SW 10.3 km/h 31.1 km/h 82 % 7.62 mm
16:12 -6.8 °C -8.7 °C 33866.8 hPa WSW 2.6 km/h 31.1 km/h 81 % 7.62 mm
16:17 -6.7 °C -8.9 °C 33866.8 hPa WSW 10.3 km/h 18.2 km/h 78 % 7.62 mm
16:22 -6.5 °C -8.9 °C 33866.8 hPa West 7.7 km/h 18.2 km/h 76 % 7.62 mm
16:27 -6.2 °C -8.8 °C 33866.8 hPa SSE 25.9 km/h 25.9 km/h 75 % 7.62 mm
16:32 -6 °C -9.3 °C 33866.8 hPa WSW 7.7 km/h 23.3 km/h 69 % 7.62 mm
16:42 -6.1 °C -10 °C 33866.8 hPa WSW 20.8 km/h 33.6 km/h 64 % 7.62 mm
16:47 -5.8 °C -9.7 °C 33856.6 hPa SW 31.1 km/h 44.1 km/h 64 % 7.62 mm
16:52 -5.7 °C -9.9 °C 33856.6 hPa WSW 31.1 km/h 44.1 km/h 62 % 7.62 mm
16:57 -5.6 °C -9.7 °C 33843.1 hPa SSW 15.6 km/h 38.8 km/h 63 % 0 mm
17:02 -5.4 °C -10.3 °C 33843.1 hPa WSW 12.9 km/h 36.2 km/h 58 % 0 mm
17:12 -5.2 °C -10.3 °C 33843.1 hPa WSW 28.5 km/h 38.8 km/h 56 % 0 mm
17:17 -5.4 °C -10.7 °C 33843.1 hPa WSW 28.5 km/h 41.4 km/h 55 % 0 mm
17:22 -5.4 °C -10.2 °C 33843.1 hPa SSW 12.9 km/h 44.1 km/h 58 % 0 mm
17:27 -5.3 °C -10.4 °C 33843.1 hPa South 20.8 km/h 44.1 km/h 56 % 0 mm
17:32 -5.3 °C -10.4 °C 33832.9 hPa West 18.2 km/h 44.1 km/h 56 % 0 mm
17:37 -5.2 °C -10.2 °C 33843.1 hPa West 10.3 km/h 44.1 km/h 57 % 0 mm
17:42 -5.1 °C -10.4 °C 33832.9 hPa SW 31.1 km/h 44.1 km/h 55 % 0 mm
17:47 -5.2 °C -10.4 °C 33832.9 hPa WSW 33.6 km/h 38.8 km/h 55 % 0 mm
17:52 -5.1 °C -10.2 °C 33832.9 hPa SW 7.7 km/h 38.8 km/h 56 % 0 mm
17:57 -5.2 °C -10.6 °C 33832.9 hPa SSW 23.3 km/h 41.4 km/h 54 % 0 mm
18:02 -5.4 °C -10.7 °C 33822.8 hPa West 12.9 km/h 41.4 km/h 55 % 0 mm
18:12 -5.4 °C -10.5 °C 33832.9 hPa West 15.6 km/h 36.2 km/h 56 % 0 mm
18:17 -5.4 °C -10.3 °C 33832.9 hPa SW 20.8 km/h 33.6 km/h 58 % 0 mm
18:22 -5.6 °C -10.3 °C 33832.9 hPa SW 18.2 km/h 33.6 km/h 59 % 0 mm
18:27 -5.7 °C -10.4 °C 33832.9 hPa West 28.5 km/h 51.8 km/h 59 % 0 mm
18:32 -5.8 °C -10.3 °C 33832.9 hPa WSW 31.1 km/h 51.8 km/h 60 % 0 mm
18:37 -5.9 °C -10.2 °C 33832.9 hPa WSW 33.6 km/h 64.7 km/h 61 % 0 mm
18:42 -5.9 °C -10.4 °C 33832.9 hPa West 15.6 km/h 64.7 km/h 60 % 0 mm
18:47 -5.8 °C -10.6 °C 33832.9 hPa WSW 25.9 km/h 64.7 km/h 58 % 0 mm
18:52 -5.7 °C -10.4 °C 33832.9 hPa SW 49.2 km/h 64.7 km/h 59 % 0 mm
18:57 -5.8 °C -10.6 °C 33832.9 hPa SSW 23.3 km/h 54.4 km/h 58 % 0 mm
19:02 -5.8 °C -10.6 °C 33832.9 hPa WSW 28.5 km/h 54.4 km/h 58 % 0 mm
19:12 -5.9 °C -10.7 °C 33832.9 hPa SW 15.6 km/h 54.4 km/h 58 % 0 mm
19:22 -5.9 °C -10.4 °C 33832.9 hPa West 25.9 km/h 49.2 km/h 60 % 0 mm
19:32 -5.9 °C -10.2 °C 33832.9 hPa SW 25.9 km/h 54.4 km/h 62 % 0 mm
19:37 -5.9 °C -9.9 °C 33843.1 hPa West 18.2 km/h 54.4 km/h 64 % 0 mm
19:42 -6 °C -9.9 °C 33843.1 hPa WSW 25.9 km/h 49.2 km/h 64 % 0 mm
19:52 -6.4 °C -9.9 °C 33843.1 hPa SW 18.2 km/h 46.7 km/h 67 % 0 mm
19:57 -6.6 °C -10.1 °C 33843.1 hPa WSW 18.2 km/h 41.4 km/h 67 % 0 mm
20:02 -6.6 °C -10 °C 33843.1 hPa SSW 12.9 km/h 41.4 km/h 68 % 0 mm
20:12 -6.5 °C -10 °C 33843.1 hPa WSW 18.2 km/h 38.8 km/h 67 % 0 mm
20:17 -6.6 °C -9.9 °C 33843.1 hPa West 31.1 km/h 31.1 km/h 68 % 0 mm
20:27 -6.7 °C -10 °C 33843.1 hPa West 12.9 km/h 41.4 km/h 69 % 0 mm
20:32 -6.8 °C -10.1 °C 33843.1 hPa SW 41.4 km/h 41.4 km/h 69 % 0 mm
20:37 -6.8 °C -10.1 °C 33843.1 hPa SW 10.3 km/h 36.2 km/h 69 % 0 mm
20:42 -6.8 °C -10.2 °C 33843.1 hPa West 10.3 km/h 41.4 km/h 68 % 0 mm
20:47 -6.7 °C -10.2 °C 33843.1 hPa WSW 10.3 km/h 41.4 km/h 67 % 0 mm
20:52 -6.7 °C -10.3 °C 33843.1 hPa SW 31.1 km/h 41.4 km/h 66 % 0 mm
20:57 -6.8 °C -10.7 °C 33843.1 hPa South 28.5 km/h 36.2 km/h 64 % 0 mm
21:02 -6.9 °C -10.9 °C 33856.6 hPa WSW 33.6 km/h 36.2 km/h 63 % 0 mm
21:12 -7.2 °C -10.9 °C 33856.6 hPa SSW 25.9 km/h 36.2 km/h 65 % 0 mm
21:17 -7.3 °C -10.9 °C 33843.1 hPa West 18.2 km/h 38.8 km/h 66 % 0 mm
21:22 -7.4 °C -10.9 °C 33856.6 hPa SW 10.3 km/h 38.8 km/h 67 % 0 mm
21:27 -7.4 °C -10.8 °C 33856.6 hPa SSW 36.2 km/h 36.2 km/h 68 % 0 mm
21:37 -7.6 °C -10.7 °C 33856.6 hPa SW 18.2 km/h 36.2 km/h 70 % 0 mm
21:42 -7.7 °C -10.8 °C 33856.6 hPa SW 15.6 km/h 36.2 km/h 70 % 0 mm
21:47 -7.7 °C -10.7 °C 33856.6 hPa SW 7.7 km/h 28.5 km/h 71 % 0 mm
21:52 -7.9 °C -10.7 °C 33866.8 hPa SW 12.9 km/h 28.5 km/h 72 % 0 mm
21:57 -7.9 °C -10.7 °C 33866.8 hPa SW 18.2 km/h 28.5 km/h 73 % 0 mm
22:02 -8.1 °C -10.7 °C 33866.8 hPa SW 10.3 km/h 25.9 km/h 74 % 0 mm
22:12 -8.1 °C -10.6 °C 33866.8 hPa SW 7.7 km/h 25.9 km/h 75 % 0 mm
22:17 -8.2 °C -10.7 °C 33866.8 hPa SW 7.7 km/h 25.9 km/h 75 % 0 mm
22:22 -8.2 °C -10.6 °C 33866.8 hPa SW 5.1 km/h 25.9 km/h 76 % 0 mm
22:32 -8.4 °C -10.7 °C 33880.3 hPa SW 10.3 km/h 20.8 km/h 77 % 0 mm
22:37 -8.5 °C -10.7 °C 33880.3 hPa SW 15.6 km/h 15.6 km/h 78 % 0 mm
22:47 -8.5 °C -10.7 °C 33880.3 hPa SW 7.7 km/h 18.2 km/h 78 % 0 mm
22:52 -8.6 °C -10.7 °C 33890.5 hPa SSW 2.6 km/h 18.2 km/h 79 % 0 mm
23:02 -8.9 °C -10.8 °C 33890.5 hPa SSW 2.6 km/h 15.6 km/h 81 % 0 mm
23:12 -9 °C -10.6 °C 33890.5 hPa SSW 2.6 km/h 7.7 km/h 83 % 0 mm
23:17 -9.1 °C -10.7 °C 33890.5 hPa SW 5.1 km/h 10.3 km/h 83 % 0 mm
23:22 -9.1 °C -10.6 °C 33890.5 hPa SW 2.6 km/h 10.3 km/h 84 % 0 mm
23:27 -9.1 °C -10.6 °C 33890.5 hPa SW 2.6 km/h 7.7 km/h 84 % 0 mm
23:32 -9.1 °C -10.6 °C 33890.5 hPa SW 5.1 km/h 7.7 km/h 84 % 0 mm
23:37 -9.1 °C -10.7 °C 33890.5 hPa SSW 2.6 km/h 5.1 km/h 83 % 0 mm
23:42 -9.1 °C -10.6 °C 33890.5 hPa SW 5.1 km/h 7.7 km/h 84 % 0 mm
23:47 -9.1 °C -10.6 °C 33890.5 hPa SW 5.1 km/h 10.3 km/h 84 % 0 mm
23:52 -9.2 °C -10.6 °C 33890.5 hPa SSW 2.6 km/h 10.3 km/h 85 % 0 mm
Meteo18
Compliments of Weather Underground - 4 mb

Script developed by  Jim McMurry - jmcmurry@mwt.net Adapted for the template by  Wim van der Kuil - Leuven-Template.eu

You find our weather info also at:

European Weather Network

Weather Underground

Equipment we use:

Weather-station
Davis Vue

Weather-program
Meteobridge

Weather-server
Raspberry PI 2 B+

Provider
1 and 1

Davis Vue

Meteobridge

Raspberry PI 2 B+

1 and 1